| time (UTC) | temp F | wind direction | speed knots | gust knots | rain 1hr in | rain 24hr in | rain mn in | humidity % | barometer mb |
| 20260507183047 | 68 | 308 | 4.3 | 9.6 | 0.00 | 0.00 | 0.00 | 71 | 1016.3 |
| 20260507181552 | 69 | 249 | 3.5 | 9.6 | 0.00 | 0.00 | 0.00 | 71 | 1016.3 |
| 20260507180044 | 67 | 274 | 3.5 | 8.7 | 0.00 | 0.00 | 0.00 | 72 | 1016.2 |
| 20260507174549 | 67 | 246 | 2.6 | 8.7 | 0.00 | 0.00 | 0.00 | 74 | 1016.4 |
| 20260507173116 | 66 | 225 | 3.5 | 8.7 | 0.00 | 0.00 | 0.00 | 75 | 1016.5 |
| 20260507171549 | 66 | 258 | 3.5 | 7.8 | 0.00 | 0.00 | 0.00 | 76 | 1016.6 |
| 20260507170055 | 65 | 223 | 2.6 | 7.0 | 0.00 | 0.00 | 0.00 | 76 | 1016.6 |
| 20260507164553 | 65 | 313 | 2.6 | 7.0 | 0.00 | 0.00 | 0.00 | 76 | 1016.7 |
| 20260507163039 | 65 | 350 | 1.7 | 7.8 | 0.00 | 0.00 | 0.00 | 77 | 1016.8 |
| 20260507161554 | 63 | 221 | 0.9 | 5.2 | 0.00 | 0.00 | 0.00 | 78 | 1016.8 |
| 20260507160040 | 63 | 296 | 2.6 | 5.2 | 0.00 | 0.00 | 0.00 | 79 | 1017.0 |
| 20260507154542 | 63 | 248 | 0.9 | 3.5 | 0.00 | 0.00 | 0.00 | 80 | 1017.1 |
| 20260507153049 | 62 | 284 | 0.9 | 3.5 | 0.00 | 0.00 | 0.00 | 80 | 1016.9 |
| 20260507151542 | 62 | 44 | 0.0 | 3.5 | 0.00 | 0.00 | 0.00 | 84 | 1016.9 |
| 20260507150041 | 61 | 0 | 0.0 | 1.7 | 0.00 | 0.00 | 0.00 | 84 | 1016.8 |
| 20260507144546 | 59 | 0 | 0.0 | 1.7 | 0.00 | 0.00 | 0.00 | 85 | 1016.8 |
| 20260507143048 | 58 | 117 | 0.9 | 2.6 | 0.00 | 0.00 | 0.00 | 85 | 1016.8 |
| 20260507141541 | 58 | 85 | 0.9 | 3.5 | 0.00 | 0.00 | 0.00 | 87 | 1016.6 |
| 20260507140045 | 57 | 116 | 0.9 | 2.6 | 0.00 | 0.00 | 0.00 | 87 | 1016.5 |
| 20260507134545 | 56 | 114 | 0.9 | 2.6 | 0.00 | 0.00 | 0.00 | 87 | 1016.5 |
| 20260507133040 | 56 | 122 | 0.9 | 1.7 | 0.00 | 0.00 | 0.00 | 88 | 1016.3 |
| 20260507131539 | 55 | 103 | 0.0 | 1.7 | 0.00 | 0.00 | 0.00 | 88 | 1016.2 |
| 20260507130039 | 55 | 98 | 1.7 | 3.5 | 0.00 | 0.00 | 0.00 | 88 | 1016.1 |
| 20260507124537 | 55 | 78 | 0.9 | 2.6 | 0.00 | 0.00 | 0.00 | 87 | 1016.0 |
| 20260507123040 | 56 | 0 | 0.9 | 2.6 | 0.00 | 0.00 | 0.00 | 87 | 1016.0 |
| 20260507121541 | 56 | 118 | 0.9 | 2.6 | 0.00 | 0.00 | 0.00 | 87 | 1016.1 |
| 20260507120045 | 56 | 101 | 0.0 | 1.7 | 0.00 | 0.00 | 0.00 | 87 | 1016.0 |
| 20260507114542 | 56 | 109 | 0.0 | 2.6 | 0.00 | 0.00 | 0.00 | 87 | 1015.9 |
| 20260507113043 | 56 | 85 | 0.0 | 1.7 | 0.00 | 0.00 | 0.00 | 87 | 1015.8 |
| 20260507111538 | 56 | 72 | 0.9 | 2.6 | 0.00 | 0.00 | 0.00 | 87 | 1016.0 |
| 20260507110104 | 56 | 104 | 0.9 | 1.7 | 0.00 | 0.00 | 0.00 | 87 | 1016.0 |
| 20260507104543 | 57 | 98 | 1.7 | 2.6 | 0.00 | 0.00 | 0.00 | 87 | 1016.1 |
| 20260507103040 | 57 | 0 | 0.9 | 1.7 | 0.00 | 0.00 | 0.00 | 88 | 1016.3 |
| 20260507101537 | 57 | 81 | 0.9 | 3.5 | 0.00 | 0.00 | 0.00 | 87 | 1016.3 |
| 20260507100040 | 57 | 0 | 0.0 | 2.6 | 0.00 | 0.00 | 0.00 | 87 | 1016.2 |
| 20260507094554 | 58 | 0 | 0.9 | 2.6 | 0.00 | 0.00 | 0.00 | 86 | 1016.4 |
| 20260507093045 | 59 | 134 | 0.9 | 2.6 | 0.00 | 0.00 | 0.00 | 86 | 1016.5 |
| 20260507091545 | 60 | 0 | 0.0 | 1.7 | 0.00 | 0.00 | 0.00 | 85 | 1016.5 |
| 20260507090043 | 60 | 11 | 0.0 | 2.6 | 0.00 | 0.00 | 0.00 | 86 | 1016.7 |
| 20260507084540 | 60 | 44 | 0.9 | 2.6 | 0.00 | 0.00 | 0.00 | 86 | 1016.8 |
| 20260507083040 | 60 | 36 | 0.0 | 1.7 | 0.00 | 0.00 | 0.00 | 86 | 1017.0 |
| 20260507081544 | 61 | 0 | 0.0 | 2.6 | 0.00 | 0.00 | 0.00 | 86 | 1017.3 |
| 20260507080044 | 61 | 13 | 0.0 | 2.6 | 0.00 | 0.00 | 0.00 | 85 | 1017.4 |
| 20260507074543 | 61 | 0 | 0.9 | 3.5 | 0.00 | 0.00 | 0.00 | 85 | 1017.3 |
| 20260507073052 | 61 | 0 | 0.0 | 0.9 | 0.00 | 0.00 | 0.00 | 85 | 1017.3 |
| 20260507071542 | 62 | 294 | 0.0 | 1.7 | 0.00 | 0.00 | 0.00 | 85 | 1017.3 |
| 20260507070044 | 62 | 0 | 0.9 | 2.6 | 0.00 | 0.00 | 0.00 | 85 | 1017.4 |
| 20260507064552 | 62 | 0 | 0.0 | 3.5 | 0.00 | 0.00 | 0.00 | 85 | 1017.6 |
| 20260507063047 | 62 | 0 | 0.9 | 2.6 | 0.00 | 0.00 | 0.00 | 84 | 1017.5 |
| 20260507061540 | 62 | 0 | 0.9 | 2.6 | 0.00 | 0.00 | 0.00 | 84 | 1017.5 |
| 20260507060037 | 62 | 301 | 0.9 | 2.6 | 0.00 | 0.00 | 0.00 | 83 | 1017.6 |
| 20260507054544 | 62 | 254 | 1.7 | 3.5 | 0.00 | 0.00 | 0.00 | 83 | 1017.5 |
| 20260507053042 | 62 | 266 | 1.7 | 6.1 | 0.00 | 0.00 | 0.00 | 82 | 1017.6 |
| 20260507051539 | 63 | 268 | 1.7 | 6.1 | 0.00 | 0.00 | 0.00 | 83 | 1017.7 |
| 20260507050038 | 63 | 269 | 0.9 | 6.1 | 0.00 | 0.00 | 0.00 | 81 | 1017.6 |
| 20260507044541 | 64 | 269 | 0.0 | 5.2 | 0.00 | 0.00 | 0.00 | 79 | 1017.5 |
| 20260507043047 | 65 | 298 | 1.7 | 5.2 | 0.00 | 0.00 | 0.00 | 79 | 1017.2 |
| 20260507041545 | 63 | 263 | 1.7 | 7.0 | 0.00 | 0.00 | 0.00 | 81 | 1017.3 |
| 20260507040040 | 64 | 315 | 1.7 | 4.3 | 0.00 | 0.00 | 0.00 | 80 | 1017.1 |
| 20260507034544 | 64 | 290 | 1.7 | 5.2 | 0.00 | 0.00 | 0.00 | 80 | 1017.0 |
| 20260507033053 | 64 | 270 | 1.7 | 7.0 | 0.00 | 0.00 | 0.00 | 80 | 1016.8 |
| 20260507031543 | 64 | 287 | 1.7 | 7.8 | 0.00 | 0.00 | 0.00 | 80 | 1016.5 |
| 20260507030041 | 64 | 342 | 2.6 | 8.7 | 0.00 | 0.00 | 0.00 | 79 | 1016.5 |
| 20260507024551 | 64 | 309 | 4.3 | 9.6 | 0.00 | 0.00 | 0.00 | 78 | 1016.4 |
| 20260507023037 | 65 | 277 | 1.7 | 7.0 | 0.00 | 0.00 | 0.00 | 77 | 1016.3 |
| 20260507021544 | 65 | 278 | 3.5 | 8.7 | 0.00 | 0.00 | 0.00 | 76 | 1016.2 |
| 20260507020040 | 65 | 271 | 5.2 | 10.4 | 0.00 | 0.00 | 0.00 | 77 | 1016.1 |
| 20260507014538 | 66 | 273 | 2.6 | 9.6 | 0.00 | 0.00 | 0.00 | 75 | 1016.0 |
| 20260507013039 | 67 | 292 | 5.2 | 10.4 | 0.00 | 0.00 | 0.00 | 74 | 1016.0 |
| 20260507011539 | 67 | 265 | 7.0 | 11.3 | 0.00 | 0.00 | 0.00 | 72 | 1016.1 |
| 20260507010040 | 67 | 238 | 6.1 | 11.3 | 0.00 | 0.00 | 0.00 | 72 | 1016.0 |
| 20260507004544 | 68 | 280 | 5.2 | 9.6 | 0.00 | 0.00 | 0.00 | 70 | 1016.0 |
| 20260507003042 | 68 | 9 | 4.3 | 12.2 | 0.00 | 0.00 | 0.00 | 70 | 1015.9 |
| 20260507001603 | 68 | 268 | 5.2 | 13.0 | 0.00 | 0.00 | 0.00 | 71 | 1015.8 |
| 20260507000037 | 68 | 219 | 5.2 | 14.8 | 0.00 | 0.00 | 0.00 | 71 | 1015.8 |
| 20260506234547 | 67 | 307 | 7.0 | 13.0 | 0.00 | 0.00 | 0.00 | 71 | 1015.8 |
| 20260506233045 | 68 | 287 | 5.2 | 14.8 | 0.00 | 0.00 | 0.00 | 69 | 1015.9 |
| 20260506231537 | 68 | 288 | 7.0 | 14.8 | 0.00 | 0.00 | 0.00 | 69 | 1016.0 |
| 20260506230041 | 67 | 257 | 7.8 | 14.8 | 0.00 | 0.00 | 0.00 | 71 | 1015.9 |
| 20260506224552 | 68 | 265 | 7.0 | 13.0 | 0.00 | 0.00 | 0.00 | 67 | 1016.2 |
| 20260506223037 | 68 | 205 | 5.2 | 11.3 | 0.00 | 0.00 | 0.00 | 67 | 1016.3 |
| 20260506221546 | 68 | 298 | 3.5 | 13.0 | 0.00 | 0.00 | 0.00 | 67 | 1016.5 |
| 20260506220044 | 69 | 281 | 4.3 | 10.4 | 0.00 | 0.00 | 0.00 | 65 | 1016.7 |
| 20260506214537 | 68 | 273 | 4.3 | 12.2 | 0.00 | 0.00 | 0.00 | 66 | 1016.8 |
| 20260506213040 | 68 | 263 | 6.1 | 13.0 | 0.00 | 0.00 | 0.00 | 67 | 1016.9 |
| 20260506211550 | 68 | 259 | 6.1 | 13.0 | 0.00 | 0.00 | 0.00 | 65 | 1017.0 |
| 20260506210041 | 68 | 322 | 7.0 | 12.2 | 0.00 | 0.00 | 0.00 | 66 | 1017.1 |
| 20260506204540 | 68 | 265 | 7.0 | 13.0 | 0.00 | 0.00 | 0.00 | 66 | 1017.1 |
| 20260506203037 | 67 | 264 | 7.0 | 12.2 | 0.00 | 0.00 | 0.00 | 67 | 1017.1 |
| 20260506201537 | 67 | 265 | 6.1 | 14.8 | 0.00 | 0.00 | 0.00 | 68 | 1017.2 |
| 20260506200041 | 67 | 284 | 8.7 | 13.0 | 0.00 | 0.00 | 0.00 | 68 | 1017.2 |
| 20260506194544 | 68 | 282 | 7.0 | 12.2 | 0.00 | 0.00 | 0.00 | 66 | 1017.5 |
| 20260506193043 | 66 | 288 | 7.8 | 12.2 | 0.00 | 0.00 | 0.00 | 67 | 1017.6 |
| 20260506191544 | 67 | 274 | 7.0 | 12.2 | 0.00 | 0.00 | 0.00 | 66 | 1017.6 |
| 20260506190038 | 67 | 261 | 7.0 | 12.2 | 0.00 | 0.00 | 0.00 | 65 | 1017.8 |
| 20260506184545 | 67 | 265 | 5.2 | 11.3 | 0.00 | 0.00 | 0.00 | 66 | 1017.9 |